Zurück zum Katalog

STARLINK-31478

AktivKommunikationVLEO
NORAD 59188·PAYLOAD·🇺🇸 United States

Gestartet Mar 10, 2024 von Cape Canaveral Space Force Station

Loading…

Nächste Überflüge (nächste 24 Stunden)

TLE

AktuellSource: CelesTrak SupGP

Epoche: Sep 14, 2026, 22:37 UTC

1 59188C 24045L   26257.94284722  .00017045  00000+0  61744-3 0  2574
2 59188  43.0000 103.6847 0001354 271.3382 165.0919 15.27565859    13

Verfolge STARLINK-31478 in Echtzeit mit AllMySat

Download on the App Store